Flag for Colombia Weather past 2 weeks in Cali, Colombia

Now
90 °F

Scattered clouds.


Feels Like: 92 °F
Forecast: N/A
Wind: 8 mph from Northwest

Location: Cali / Alfonso Bonillaaragon

Current Time: Mar 5, 2015 at 4:02:55 PM

Latest Report: Mar 5, 2015 at 3:00 PM


Visibility: N/A

Pressure: 29.80 "Hg

Humidity: 46%

Dew point: 66 °F

Location of CaliLocation

Historic Weather in Cali — Graph

°F

Cali temperature yesterday

Maximum temperature yesterday: 84 °F (at 7:00 AM)
Minimum temperature yesterday: 68 °F (at 5:00 AM)
Average temperature yesterday: 75 °F

Past Weeks' High & Low Weather Summary

 TemperatureHumidityPressure
High90 °F (Feb 21, 3:00 PM)100% (Feb 21, 7:00 AM)30.35 "Hg (Feb 21, 7:00 AM)
Low57 °F (Mar 2, 12:00 AM)38% (Feb 23, 3:00 PM)29.72 "Hg (Feb 27, 4:00 PM)
Average76 °F71%29.93 "Hg
* Reported Feb 18 3:00 PM — Mar 5 3:00 PM, Cali, Weather by CustomWeather, © 2015

Note: Actual official high and low records may vary slightly from our data, if they occured in-between our weather recording intervals... More about our weather records

Advertising

Cali weather history for previous 24 hours

 ConditionsComfort  
Time TempWeatherWind HumidityBarometerVisibility
3:00 PM
Thu, Mar 5
90 °FScattered clouds.8 mph46%29.80 "HgN/A
2:00 PM88 °FScattered clouds.6 mph49%29.84 "HgN/A
1:00 PM86 °FScattered clouds.6 mph52%29.88 "HgN/A
12:00 PM84 °FScattered clouds.5 mph55%29.92 "HgN/A
11:00 AM81 °FScattered clouds.5 mph62%29.95 "HgN/A
10:00 AM81 °FPartly sunny.6 mph62%29.97 "HgN/A
9:00 AM75 °FScattered clouds.No wind78%29.98 "HgN/A
8:00 AM73 °FScattered clouds.No wind83%29.96 "HgN/A
7:00 AM68 °FScattered clouds.No wind94%29.95 "Hg6 mi
6:00 AM66 °FScattered showers. Partly cloudy.No wind100%29.93 "Hg6 mi
5:00 AM66 °FPartly cloudy.No windN/A29.99 "Hg6 mi
4:00 AM70 °FPassing clouds.2 mph94%29.89 "HgN/A
3:00 AM70 °FPassing clouds.2 mph94%29.89 "HgN/A
2:00 AM70 °FPassing clouds.No wind94%29.90 "HgN/A
1:00 AM72 °FPassing clouds.No wind88%29.93 "HgN/A
12:00 AM72 °FPassing clouds.2 mph88%29.94 "HgN/A
11:00 PM
Wed, Mar 4
72 °FPassing clouds.No wind88%29.94 "HgN/A
10:00 PM72 °FPassing clouds.7 mph83%29.93 "HgN/A
9:00 PM72 °FPassing clouds.3 mph83%29.92 "HgN/A
8:00 PM73 °FPassing clouds.7 mph78%29.89 "HgN/A
7:00 PM75 °FPassing clouds.7 mph74%29.84 "HgN/A
6:00 PM77 °FScattered clouds.6 mph69%29.81 "HgN/A
5:00 PM82 °FScattered showers. Broken clouds.12 mph58%29.80 "HgN/A
4:00 PM84 °FScattered showers. Scattered clouds.14 mph55%29.82 "HgN/A
Weather by CustomWeather, © 2015

See weather overviewHow to use our weather pages